User: anonymous   Login
Location: Alando
(42.3054°N, 9.2895°E)
Time: 02:03:11
(UTC+00:00)
Language:

GRACE-FO 2 - Orbit

View from above orbital plane
View from above orbital plane
View from above satellite
View from above satellite

Ground track
Ground track

The orbit data is extracted from the following two-line orbital elements,

1 43477U 18047B   20192.69592591 +.00000616  00000-0 +25290-4 0    03
2 43477  88.9905 134.6883 0018198 165.7985 279.6168 15.24036093118762
Epoch (UTC): 10 July 2020 16:42:07
Eccentricity: 0.0018198
inclination: 88.9905°
perigee height: 481 km
apogee height: 506 km
right ascension of ascending node: 134.6883°
argument of perigee: 165.7985°
revolutions per day: 15.24036093
mean anomaly at epoch: 279.6168°
orbit number at epoch: 11876

The dashed part of the orbit path shows where the satellite is in the earth's shadow,  

DLR